Time,TemperatureF,DewpointF,PressureIn,WindDirection,WindDirectionDegrees,WindSpeedMPH,WindSpeedGustMPH,Humidity,HourlyPrecipIn,Conditions,Clouds,dailyrainin,SolarRadiationWatts/m^2,SoftwareType,DateUTC
2013-01-27 00:03:00,31.0,30.0,30.60,NNE,26,8.0,12.0,95,0.00,,,0.21,0.000000,,2013-01-27 05:03:00,
2013-01-27 00:12:00,31.0,30.0,30.60,NNE,26,8.0,12.0,95,0.00,,,0.21,0.000000,,2013-01-27 05:12:00,
2013-01-27 00:32:00,31.0,26.0,30.61,NE,42,8.0,17.0,81,0.00,,,0.21,0.000000,,2013-01-27 05:32:00,
2013-01-27 00:42:00,31.0,26.0,30.61,NE,42,8.0,17.0,81,0.00,,,0.21,0.000000,,2013-01-27 05:42:00,
2013-01-27 00:52:00,31.0,26.0,30.61,NE,42,8.0,17.0,81,0.00,,,0.21,0.000000,,2013-01-27 05:52:00,
2013-01-27 01:02:00,31.0,26.0,30.61,NE,42,8.0,17.0,81,0.00,,,0.21,0.000000,,2013-01-27 06:02:00,
2013-01-27 01:11:00,31.0,26.0,30.61,NE,42,8.0,17.0,81,0.00,,,0.21,0.000000,,2013-01-27 06:11:00,
2013-01-27 01:32:00,29.0,25.0,30.63,NE,37,6.0,13.0,83,0.00,,,0.21,0.000000,,2013-01-27 06:32:00,
2013-01-27 01:42:00,29.0,25.0,30.63,NE,37,6.0,13.0,83,0.00,,,0.21,0.000000,,2013-01-27 06:42:00,
2013-01-27 01:52:00,29.0,25.0,30.63,NE,37,6.0,13.0,83,0.00,,,0.21,0.000000,,2013-01-27 06:52:00,
2013-01-27 02:01:00,29.0,25.0,30.63,NE,37,6.0,13.0,83,0.00,,,0.21,0.000000,,2013-01-27 07:01:00,
2013-01-27 02:14:00,29.0,25.0,30.63,NE,37,6.0,13.0,83,0.00,,,0.21,0.000000,,2013-01-27 07:14:00,
2013-01-27 02:32:00,29.0,24.0,30.66,NE,43,6.0,11.0,82,0.00,,,0.21,0.000000,,2013-01-27 07:32:00,
2013-01-27 02:42:00,29.0,24.0,30.66,NE,43,6.0,11.0,82,0.00,,,0.21,0.000000,,2013-01-27 07:42:00,
2013-01-27 02:52:00,29.0,24.0,30.66,NE,43,6.0,11.0,82,0.00,,,0.21,0.000000,,2013-01-27 07:52:00,
2013-01-27 03:02:00,29.0,24.0,30.66,NE,43,6.0,11.0,82,0.00,,,0.21,0.000000,,2013-01-27 08:02:00,
2013-01-27 03:12:00,29.0,24.0,30.66,NE,43,6.0,11.0,82,0.00,,,0.21,0.000000,,2013-01-27 08:12:00,
2013-01-27 03:42:00,28.0,23.0,30.66,NNE,31,4.0,11.0,80,0.00,,,0.21,0.000000,,2013-01-27 08:42:00,
2013-01-27 03:52:00,28.0,23.0,30.66,NNE,31,4.0,11.0,80,0.00,,,0.21,0.000000,,2013-01-27 08:52:00,
2013-01-27 04:03:00,28.0,23.0,30.66,NNE,31,4.0,11.0,80,0.00,,,0.21,0.000000,,2013-01-27 09:03:00,
2013-01-27 04:11:00,28.0,23.0,30.66,NNE,31,4.0,11.0,80,0.00,,,0.21,0.000000,,2013-01-27 09:11:00,
2013-01-27 04:32:00,24.0,22.0,30.66,NNE,33,3.0,7.0,92,0.00,,,0.21,0.000000,,2013-01-27 09:32:00,
2013-01-27 04:42:00,24.0,22.0,30.66,NNE,33,3.0,7.0,92,0.00,,,0.21,0.000000,,2013-01-27 09:42:00,
2013-01-27 04:52:00,24.0,22.0,30.66,NNE,33,3.0,7.0,92,0.00,,,0.21,0.000000,,2013-01-27 09:52:00,
2013-01-27 05:01:00,24.0,22.0,30.66,NNE,33,3.0,7.0,92,0.00,,,0.21,0.000000,,2013-01-27 10:01:00,
2013-01-27 05:11:00,24.0,22.0,30.66,NNE,33,3.0,7.0,92,0.00,,,0.21,0.000000,,2013-01-27 10:11:00,
2013-01-27 05:42:00,22.0,21.0,30.67,NNE,31,3.0,4.0,95,0.00,,,0.21,0.000000,,2013-01-27 10:42:00,
2013-01-27 05:52:00,22.0,21.0,30.67,NNE,31,3.0,4.0,95,0.00,,,0.21,0.000000,,2013-01-27 10:52:00,
2013-01-27 06:01:00,22.0,21.0,30.67,NNE,31,3.0,4.0,95,0.00,,,0.21,0.000000,,2013-01-27 11:01:00,
2013-01-27 06:11:00,22.0,21.0,30.67,NNE,31,3.0,4.0,95,0.00,,,0.21,0.000000,,2013-01-27 11:11:00,
2013-01-27 06:42:00,23.0,22.0,30.68,NNE,18,4.0,7.0,96,0.00,,,0.21,0.000000,,2013-01-27 11:42:00,
2013-01-27 06:52:00,23.0,22.0,30.68,NNE,18,4.0,7.0,96,0.00,,,0.21,0.000000,,2013-01-27 11:52:00,
2013-01-27 07:02:00,23.0,22.0,30.68,NNE,18,4.0,7.0,96,0.00,,,0.21,0.000000,,2013-01-27 12:02:00,
2013-01-27 07:12:00,23.0,22.0,30.68,NNE,18,4.0,7.0,96,0.00,,,0.21,0.000000,,2013-01-27 12:12:00,
2013-01-27 07:33:00,22.0,20.0,30.72,NNW,334,2.0,6.0,92,0.00,,,0.21,0.000000,,2013-01-27 12:33:00,
2013-01-27 07:42:00,22.0,20.0,30.72,NNW,334,2.0,6.0,92,0.00,,,0.21,0.000000,,2013-01-27 12:42:00,
2013-01-27 07:52:00,22.0,20.0,30.72,NNW,334,2.0,6.0,92,0.00,,,0.21,0.000000,,2013-01-27 12:52:00,
2013-01-27 08:02:00,22.0,20.0,30.72,NNW,334,2.0,6.0,92,0.00,,,0.21,0.000000,,2013-01-27 13:02:00,
2013-01-27 08:12:00,22.0,20.0,30.72,NNW,334,2.0,6.0,92,0.00,,,0.21,0.000000,,2013-01-27 13:12:00,
2013-01-27 08:42:00,24.0,22.0,30.74,NNE,21,4.0,6.0,92,0.00,,,0.21,10.000000,,2013-01-27 13:42:00,
2013-01-27 08:52:00,24.0,22.0,30.74,NNE,21,4.0,6.0,92,0.00,,,0.21,10.000000,,2013-01-27 13:52:00,
2013-01-27 09:02:00,24.0,22.0,30.74,NNE,21,4.0,6.0,92,0.00,,,0.21,10.000000,,2013-01-27 14:02:00,
2013-01-27 09:12:00,24.0,22.0,30.74,NNE,21,4.0,6.0,92,0.00,,,0.21,10.000000,,2013-01-27 14:12:00,
2013-01-27 09:53:00,32.0,23.0,30.77,NE,53,5.0,9.0,68,0.00,,,0.21,166.000000,,2013-01-27 14:53:00,
2013-01-27 10:02:00,32.0,23.0,30.77,NE,53,5.0,9.0,68,0.00,,,0.21,166.000000,,2013-01-27 15:02:00,
2013-01-27 10:12:00,32.0,23.0,30.77,NE,53,5.0,9.0,68,0.00,,,0.21,166.000000,,2013-01-27 15:12:00,
2013-01-27 10:33:00,36.0,25.0,30.79,East,94,4.0,9.0,63,0.00,,,0.21,344.000000,,2013-01-27 15:33:00,
2013-01-27 10:42:00,36.0,25.0,30.79,East,94,4.0,9.0,63,0.00,,,0.21,344.000000,,2013-01-27 15:42:00,
2013-01-27 10:53:00,36.0,25.0,30.79,East,94,4.0,9.0,63,0.00,,,0.21,344.000000,,2013-01-27 15:53:00,
2013-01-27 11:03:00,36.0,25.0,30.79,East,94,4.0,9.0,63,0.00,,,0.21,344.000000,,2013-01-27 16:03:00,
2013-01-27 11:12:00,36.0,25.0,30.79,East,94,4.0,9.0,63,0.00,,,0.21,344.000000,,2013-01-27 16:12:00,
2013-01-27 11:33:00,37.0,26.0,30.80,ESE,106,4.0,9.0,63,0.00,,,0.21,427.000000,,2013-01-27 16:33:00,
2013-01-27 11:42:00,37.0,26.0,30.80,ESE,106,4.0,9.0,63,0.00,,,0.21,427.000000,,2013-01-27 16:42:00,
2013-01-27 11:53:00,37.0,26.0,30.80,ESE,106,4.0,9.0,63,0.00,,,0.21,427.000000,,2013-01-27 16:53:00,
2013-01-27 12:02:00,37.0,26.0,30.80,ESE,106,4.0,9.0,63,0.00,,,0.21,427.000000,,2013-01-27 17:02:00,
2013-01-27 12:12:00,37.0,26.0,30.80,ESE,106,4.0,9.0,63,0.00,,,0.21,427.000000,,2013-01-27 17:12:00,
2013-01-27 12:42:00,40.0,26.0,30.77,South,171,5.0,11.0,56,0.00,,,0.21,294.000000,,2013-01-27 17:42:00,
2013-01-27 12:53:00,40.0,26.0,30.77,South,171,5.0,11.0,56,0.00,,,0.21,294.000000,,2013-01-27 17:53:00,
2013-01-27 13:03:00,40.0,26.0,30.77,South,171,5.0,11.0,56,0.00,,,0.21,294.000000,,2013-01-27 18:03:00,
2013-01-27 13:12:00,40.0,26.0,30.77,South,171,5.0,11.0,56,0.00,,,0.21,294.000000,,2013-01-27 18:12:00,
2013-01-27 13:42:00,42.0,24.0,30.75,South,188,4.0,11.0,48,0.00,,,0.17,527.000000,,2013-01-27 18:42:00,
2013-01-27 13:53:00,42.0,24.0,30.75,South,188,4.0,11.0,48,0.00,,,0.17,527.000000,,2013-01-27 18:53:00,
2013-01-27 14:02:00,42.0,24.0,30.75,South,188,4.0,11.0,48,0.00,,,0.17,527.000000,,2013-01-27 19:02:00,
2013-01-27 14:12:00,42.0,24.0,30.75,South,188,4.0,11.0,48,0.00,,,0.17,527.000000,,2013-01-27 19:12:00,
2013-01-27 14:33:00,43.0,24.0,30.73,South,185,5.0,11.0,47,0.00,,,0.07,455.000000,,2013-01-27 19:33:00,
2013-01-27 14:42:00,43.0,24.0,30.73,South,185,5.0,11.0,47,0.00,,,0.07,455.000000,,2013-01-27 19:42:00,
2013-01-27 14:52:00,43.0,24.0,30.73,South,185,5.0,11.0,47,0.00,,,0.07,455.000000,,2013-01-27 19:52:00,
2013-01-27 15:03:00,43.0,24.0,30.73,South,185,5.0,11.0,47,0.00,,,0.07,455.000000,,2013-01-27 20:03:00,
2013-01-27 15:12:00,43.0,24.0,30.73,South,185,5.0,11.0,47,0.00,,,0.07,455.000000,,2013-01-27 20:12:00,
2013-01-27 15:42:00,44.0,24.0,30.71,SSE,161,4.0,12.0,45,0.00,,,0.02,395.000000,,2013-01-27 20:42:00,
2013-01-27 15:52:00,44.0,24.0,30.71,SSE,161,4.0,12.0,45,0.00,,,0.02,395.000000,,2013-01-27 20:52:00,
2013-01-27 16:02:00,44.0,24.0,30.71,SSE,161,4.0,12.0,45,0.00,,,0.02,395.000000,,2013-01-27 21:02:00,
2013-01-27 16:12:00,44.0,24.0,30.71,SSE,161,4.0,12.0,45,0.00,,,0.02,395.000000,,2013-01-27 21:12:00,
2013-01-27 16:33:00,42.0,24.0,30.72,North,351,3.0,9.0,48,0.00,,,0.01,319.000000,,2013-01-27 21:33:00,
2013-01-27 16:43:00,42.0,24.0,30.72,North,351,3.0,9.0,48,0.00,,,0.01,319.000000,,2013-01-27 21:43:00,
2013-01-27 16:52:00,42.0,24.0,30.72,North,351,3.0,9.0,48,0.00,,,0.01,319.000000,,2013-01-27 21:52:00,
2013-01-27 17:03:00,42.0,24.0,30.72,North,351,3.0,9.0,48,0.00,,,0.01,319.000000,,2013-01-27 22:03:00,
2013-01-27 17:12:00,42.0,24.0,30.72,North,351,3.0,9.0,48,0.00,,,0.01,319.000000,,2013-01-27 22:12:00,
2013-01-27 17:42:00,42.0,26.0,30.72,South,169,3.0,11.0,52,0.00,,,0.00,79.000000,,2013-01-27 22:42:00,
2013-01-27 17:52:00,42.0,26.0,30.72,South,169,3.0,11.0,52,0.00,,,0.00,79.000000,,2013-01-27 22:52:00,
2013-01-27 18:02:00,42.0,26.0,30.72,South,169,3.0,11.0,52,0.00,,,0.00,79.000000,,2013-01-27 23:02:00,
2013-01-27 18:12:00,42.0,26.0,30.72,South,169,3.0,11.0,52,0.00,,,0.00,79.000000,,2013-01-27 23:12:00,
2013-01-27 18:32:00,39.0,26.0,30.74,South,174,3.0,5.0,60,0.00,,,0.00,13.000000,,2013-01-27 23:32:00,
2013-01-27 18:42:00,39.0,26.0,30.74,South,174,3.0,5.0,60,0.00,,,0.00,13.000000,,2013-01-27 23:42:00,
2013-01-27 18:53:00,39.0,26.0,30.74,South,174,3.0,5.0,60,0.00,,,0.00,13.000000,,2013-01-27 23:53:00,
2013-01-27 19:02:00,39.0,26.0,30.74,South,174,3.0,5.0,60,0.00,,,0.00,13.000000,,2013-01-28 00:02:00,
2013-01-27 19:12:00,39.0,26.0,30.74,South,174,3.0,5.0,60,0.00,,,0.00,13.000000,,2013-01-28 00:12:00,
2013-01-27 19:42:00,37.0,25.0,30.73,SE,129,5.0,7.0,61,0.00,,,0.00,0.000000,,2013-01-28 00:42:00,
2013-01-27 19:52:00,37.0,25.0,30.73,SE,129,5.0,7.0,61,0.00,,,0.00,0.000000,,2013-01-28 00:52:00,
2013-01-27 20:02:00,37.0,25.0,30.73,SE,129,5.0,7.0,61,0.00,,,0.00,0.000000,,2013-01-28 01:02:00,
2013-01-27 20:12:00,37.0,25.0,30.73,SE,129,5.0,7.0,61,0.00,,,0.00,0.000000,,2013-01-28 01:12:00,
2013-01-27 20:42:00,37.0,24.0,30.74,SE,135,5.0,9.0,59,0.00,,,0.00,0.000000,,2013-01-28 01:42:00,
2013-01-27 20:52:00,37.0,24.0,30.74,SE,135,5.0,9.0,59,0.00,,,0.00,0.000000,,2013-01-28 01:52:00,
2013-01-27 21:02:00,37.0,24.0,30.74,SE,135,5.0,9.0,59,0.00,,,0.00,0.000000,,2013-01-28 02:02:00,
2013-01-27 21:11:00,37.0,24.0,30.74,SE,135,5.0,9.0,59,0.00,,,0.00,0.000000,,2013-01-28 02:11:00,
2013-01-27 21:42:00,38.0,26.0,30.74,SE,139,6.0,10.0,62,0.00,,,0.00,0.000000,,2013-01-28 02:42:00,
2013-01-27 21:53:00,38.0,26.0,30.74,SE,139,6.0,10.0,62,0.00,,,0.00,0.000000,,2013-01-28 02:53:00,
2013-01-27 22:02:00,38.0,26.0,30.74,SE,139,6.0,10.0,62,0.00,,,0.00,0.000000,,2013-01-28 03:02:00,
2013-01-27 22:12:00,38.0,26.0,30.74,SE,139,6.0,10.0,62,0.00,,,0.00,0.000000,,2013-01-28 03:12:00,
2013-01-27 22:32:00,36.0,25.0,30.72,SSE,153,5.0,8.0,63,0.00,,,0.00,0.000000,,2013-01-28 03:32:00,
2013-01-27 22:42:00,36.0,25.0,30.72,SSE,153,5.0,8.0,63,0.00,,,0.00,0.000000,,2013-01-28 03:42:00,
2013-01-27 22:53:00,36.0,25.0,30.72,SSE,153,5.0,8.0,63,0.00,,,0.00,0.000000,,2013-01-28 03:53:00,
2013-01-27 23:02:00,36.0,25.0,30.72,SSE,153,5.0,8.0,63,0.00,,,0.00,0.000000,,2013-01-28 04:02:00,
2013-01-27 23:12:00,36.0,25.0,30.72,SSE,153,5.0,8.0,63,0.00,,,0.00,0.000000,,2013-01-28 04:12:00,
2013-01-27 23:32:00,37.0,26.0,30.71,SSE,147,5.0,11.0,64,0.00,,,0.00,0.000000,,2013-01-28 04:32:00,
2013-01-27 23:42:00,37.0,26.0,30.71,SSE,147,5.0,11.0,64,0.00,,,0.00,0.000000,,2013-01-28 04:42:00,
2013-01-27 23:52:00,37.0,26.0,30.71,SSE,147,5.0,11.0,64,0.00,,,0.00,0.000000,,2013-01-28 04:52:00,